STARLINK-1342 (45558 NORAD) Tracking and Keplerian Element Data

This shows tracking and keplerian element data for the satellite.

Feedback or suggestion? Click here.




ElementValue
Catalog45558
NameSTARLINK-1342
Epoch Orbit182
Epoch Day188.91667824
Epoch Year2020
RAAN30.5114
Inclination52.9984
Eccentricity0.0001288
Argument of Perigee52.7687
Mean Anonmoly247.9211
Mean Motion15.53214074
Decay Rate-0.01175421
L11 45558U 20025AD 20188.91667824 -.01175421 00000-0 -20446-1 0 9998
L22 45558 52.9984 30.5114 0001288 52.7687 247.9211 15.53214074 1823

Live tracking and technical data element details for STARLINK-1342 (NORAD 45558). STARLINK-1342 can be tracked NOW for your location showing map with azimuth and elevation plus other details from your city location.

Track the satellite on the map from your city or location and see movement details for azimuth, elevation, latitude, longitude, range, height, and movement on the map or in text.







IsCatalogInMostPopularTable: catalog: 45558, numindb: 22
Update: records affected: 1



GetName: 45558 STARLINK-1342

Hit Count: updated at: Wed, 08 Jul 2020 04:31:34 GMT